Regional Weather Roundup
Issued by NWS Green Bay, WI

Home | Current Version | Previous Version | Text Only | Print | Product List | Glossary On
Versions: 1 2 3 4 5 6 7 8 9 10 11 12 13 14 15 16 17 18 19 20 21 22 23 24 25 26 27 28 29 30 31 32 33 34 35 36 37 38 39 40 41 42 43 44 45 46 47 48 49 50
000
ASUS43 KGRB 240411
RWRGRB

NORTH-CENTRAL AND NORTHEAST WISCONSIN REGIONAL WEATHER ROUNDUP
NATIONAL WEATHER SERVICE GREEN BAY WI
1100 PM CDT SAT JUL 23 2016

WIZ005-009-010>012-018-019-240500-
NORTH CENTRAL WISCONSIN

CITY           SKY/WX    TMP DP  RH WIND       PRES   REMARKS
IRONWOOD       CLOUDY    73  68  83 S6        29.82F
MANITOWISH WTR RAIN      68  68 100 S8        29.89S
ARBOR VITAE    RAIN      69  68  95 S6        29.91S
EAGLE RIVER    HVY RAIN  69  69  99 SW6       29.90F
LAND O LAKES   LGT RAIN  71  69  93 S3        29.91S
RHINELANDER    LGT RAIN  69  67  93 SE6       29.91S
PHILLIPS       CLOUDY    68  68  98 CALM      29.87F
ANTIGO         LGT RAIN  70  68  95 CALM      29.91S
TOMAHAWK       LGT RAIN  67  65  94 CALM      29.89F
MERRILL        CLOUDY    68  68 100 CALM      29.88F
$$

WIZ013-073-240500-
NORTHEAST WISCONSIN

CITY           SKY/WX    TMP DP  RH WIND       PRES   REMARKS
IRON MOUNTAIN  LGT RAIN  71  64  78 SE7       29.89S
MARINETTE      RAIN      72  70  94 CALM      29.91S
OCONTO         CLOUDY   N/A N/A N/A SE6       29.88F
$$

WIZ017-030-035>037-045-240500-
CENTRAL WISCONSIN

CITY           SKY/WX    TMP DP  RH WIND       PRES   REMARKS
MEDFORD        CLOUDY    67  67 100 CALM      29.87F
WAUSAU         CLOUDY    70  68  93 SE7       29.86F
MOSINEE        CLOUDY    68  68 100 SE3       29.88F
MARSHFIELD     LGT RAIN  70  67  90 SE7       29.86S
WISC RAPIDS    CLOUDY    72  67  84 S7        29.87F
STEVENS POINT  CLOUDY    69  67  93 S6        29.88S
WAUPACA        CLOUDY    74  73  98 CALM      29.88S
SHAWANO        DRIZZLE   75  69  80 S3        29.89S
CLINTONVILLE   CLOUDY    72  68  88 CALM      29.88S
WAUTOMA        CLOUDY    71  69  93 S3        29.88S
$$

WIZ038-039-048-051-240500-
FOX VALLEY

CITY           SKY/WX    TMP DP  RH WIND       PRES   REMARKS
NWS GREEN BAY  LGT RAIN  75  75 100 S6        29.88F
APPLETON       MOCLDY    73  72  94 S9        29.88F
OSHKOSH        CLOUDY    73  70  90 S12       29.88F
FOND DU LAC    CLOUDY    73  70  90 S10       29.89F
$$

WIZ022-050-052-240500-
EAST CENTRAL WISCONSIN

CITY           SKY/WX    TMP DP  RH WIND       PRES   REMARKS
EPHRAIM        MOCLDY    71  64  76 S6        29.89F
WASHINGTON ISL NOT AVBL
STURGEON BAY   CLOUDY    72  68  87 S8        29.90F
MANITOWOC      CLOUDY    69  68  96 CALM      29.91F FOG
SHEBOYGAN      CLOUDY    73  71  93 S7        29.91F
$$

LMZ563-521-522-541>543-240500-
LAKESHORE

STATION/POSITION TIME  TEMP    WIND        PRES    VSBY  WAVE
                       AIR SEA DIR/SP/G                  HT/PER
                 (UTC) (F)     (DEG/KT/KT) (MB)    (MI)  (FT/S)
SHEBOYGAN LKSHOR 0400   71     190/ 16/ 17 1012.6F
KEWAUNEE LKSHORE 0300   66                   N/A
NORTHPORT PIER   0300   74     180/  4/  8 1012.2F
N MID LAKE BUOY  0350   72 71  130/  8/ 10 1011.5F         0
S GREEN BAY BUOY 0330   75 75  170/ 12/ 16   N/A
CHAMBERS ISLAND  0300   75     140/  4/ 10 1012.2S
MENOMINEE LKSHOR 0300   76                   N/A
$$



USA.gov is the U.S. government's official web portal to all federal, state and local government web resources and services.